{"data":{"norad_id":64561,"epoch":"2026-05-24T19:10:56.137440Z","epoch_age_seconds":92695,"freshness":"FRESH","line1":"1 64561U 25135AK  26144.79926085  .00004739  00000+0  42816-3 0  9997","line2":"2 64561  97.7713 259.8458 0001740 106.4865 253.6548 14.95949019 50426","mean_motion":14.95949019,"eccentricity":0.000174,"inclination_deg":97.7713,"raan_deg":259.8458,"arg_perigee_deg":106.4865,"mean_anomaly_deg":253.6548,"bstar":0.00042816,"rev_number":5042,"period_min":96.259964859137,"perigee_km":578.21802602373,"apogee_km":580.6392588673,"semimajor_km":6957.5656424455,"source":"CELESTRAK","updated_at":"2026-05-25T13:38:13.543057Z"}}